| time (UTC) | temp F | wind direction | speed knots | gust knots | rain 1hr in | rain 24hr in | rain mn in | humidity % | barometer mb |
| 20260505153129 | 75 | 230 | 12.2 | 13.9 | 0.00 | 0.00 | 0.00 | 78 | 1006.6 |
| 20260505152625 | 75 | 196 | 10.4 | 14.8 | 0.00 | 0.00 | 0.00 | 78 | 1006.7 |
| 20260505152121 | 76 | 212 | 10.4 | 13.9 | 0.00 | 0.00 | 0.00 | 78 | 1006.7 |
| 20260505151617 | 75 | 218 | 7.8 | 13.0 | 0.00 | 0.00 | 0.00 | 79 | 1006.8 |
| 20260505151114 | 75 | 217 | 11.3 | 14.8 | 0.00 | 0.00 | 0.00 | 78 | 1006.9 |
| 20260505150610 | 74 | 198 | 14.8 | 17.4 | 0.00 | 0.00 | 0.00 | 80 | 1006.7 |
| 20260505150107 | 74 | 197 | 11.3 | 12.2 | 0.00 | 0.00 | 0.00 | 80 | 1007.0 |
| 20260505140536 | 72 | 205 | 13.9 | 15.6 | 0.00 | 0.00 | 0.00 | 83 | 1006.6 |
| 20260505124949 | 71 | 185 | 11.3 | 13.9 | 0.00 | 0.00 | 0.00 | 85 | 1006.5 |
| 20260505124446 | 71 | 197 | 7.8 | 8.7 | 0.00 | 0.00 | 0.00 | 85 | 1006.3 |
| 20260505123942 | 71 | 181 | 7.8 | 9.6 | 0.00 | 0.00 | 0.00 | 85 | 1006.5 |
| 20260505123439 | 71 | 211 | 9.6 | 12.2 | 0.00 | 0.00 | 0.00 | 84 | 1006.4 |
| 20260505122935 | 71 | 196 | 10.4 | 12.2 | 0.00 | 0.00 | 0.00 | 84 | 1006.3 |
| 20260505122432 | 71 | 195 | 9.6 | 11.3 | 0.00 | 0.00 | 0.00 | 84 | 1006.3 |
| 20260505121929 | 71 | 222 | 7.8 | 7.8 | 0.00 | 0.00 | 0.00 | 84 | 1006.3 |
| 20260505121426 | 71 | 209 | 8.7 | 9.6 | 0.00 | 0.00 | 0.00 | 84 | 1006.0 |
| 20260505120921 | 71 | 212 | 11.3 | 13.9 | 0.00 | 0.00 | 0.00 | 84 | 1006.1 |
| 20260505120418 | 71 | 207 | 11.3 | 13.9 | 0.00 | 0.00 | 0.00 | 84 | 1006.1 |
| 20260505115917 | 71 | 203 | 9.6 | 11.3 | 0.00 | 0.00 | 0.00 | 84 | 1006.0 |
| 20260505115414 | 71 | 209 | 9.6 | 9.6 | 0.00 | 0.00 | 0.00 | 85 | 1006.2 |
| 20260505114912 | 71 | 194 | 7.8 | 8.7 | 0.00 | 0.00 | 0.00 | 84 | 1006.1 |
| 20260505114408 | 71 | 198 | 9.6 | 11.3 | 0.00 | 0.00 | 0.00 | 85 | 1006.0 |
| 20260505113904 | 70 | 217 | 7.8 | 9.6 | 0.00 | 0.00 | 0.00 | 85 | 1005.9 |
| 20260505113401 | 70 | 190 | 6.1 | 7.8 | 0.00 | 0.00 | 0.00 | 85 | 1006.0 |
| 20260505112857 | 70 | 205 | 9.6 | 12.2 | 0.00 | 0.00 | 0.00 | 85 | 1005.8 |
| 20260505112355 | 70 | 218 | 7.8 | 9.6 | 0.00 | 0.00 | 0.00 | 85 | 1005.6 |
| 20260505111850 | 70 | 215 | 12.2 | 14.8 | 0.00 | 0.00 | 0.00 | 84 | 1005.7 |
| 20260505111346 | 70 | 197 | 7.8 | 9.6 | 0.00 | 0.00 | 0.00 | 84 | 1005.7 |
| 20260505110842 | 70 | 180 | 10.4 | 13.0 | 0.00 | 0.00 | 0.00 | 84 | 1005.6 |
| 20260505110340 | 70 | 211 | 12.2 | 13.9 | 0.00 | 0.00 | 0.00 | 84 | 1005.6 |
| 20260505101814 | 71 | 204 | 12.2 | 13.9 | 0.00 | 0.00 | 0.00 | 84 | 1005.9 |
| 20260505101311 | 71 | 217 | 14.8 | 18.2 | 0.00 | 0.00 | 0.00 | 84 | 1006.0 |
| 20260505100807 | 71 | 212 | 13.0 | 15.6 | 0.00 | 0.00 | 0.00 | 84 | 1005.9 |
| 20260505100304 | 71 | 216 | 8.7 | 13.0 | 0.00 | 0.00 | 0.00 | 84 | 1006.0 |
| 20260505095759 | 71 | 203 | 7.8 | 8.7 | 0.00 | 0.00 | 0.00 | 84 | 1006.0 |
| 20260505095257 | 71 | 206 | 7.8 | 11.3 | 0.00 | 0.00 | 0.00 | 84 | 1006.1 |
| 20260505094752 | 71 | 192 | 10.4 | 13.0 | 0.00 | 0.00 | 0.00 | 84 | 1006.0 |
| 20260505094249 | 71 | 209 | 10.4 | 11.3 | 0.00 | 0.00 | 0.00 | 84 | 1006.2 |
| 20260505093745 | 71 | 195 | 7.8 | 8.7 | 0.00 | 0.00 | 0.00 | 84 | 1006.3 |
| 20260505093243 | 71 | 229 | 9.6 | 12.2 | 0.00 | 0.00 | 0.00 | 84 | 1006.1 |
| 20260505092739 | 71 | 219 | 11.3 | 12.2 | 0.00 | 0.00 | 0.00 | 84 | 1006.3 |
| 20260505092238 | 71 | 207 | 9.6 | 12.2 | 0.00 | 0.00 | 0.00 | 84 | 1006.3 |
| 20260505091734 | 71 | 221 | 10.4 | 13.0 | 0.00 | 0.00 | 0.00 | 84 | 1006.3 |
| 20260505091233 | 71 | 219 | 10.4 | 13.0 | 0.00 | 0.00 | 0.00 | 84 | 1006.4 |
| 20260505090730 | 71 | 194 | 10.4 | 14.8 | 0.00 | 0.00 | 0.00 | 84 | 1006.3 |
| 20260505090228 | 71 | 215 | 11.3 | 13.9 | 0.00 | 0.00 | 0.00 | 84 | 1006.1 |
| 20260505085725 | 70 | 209 | 13.9 | 15.6 | 0.00 | 0.00 | 0.00 | 84 | 1006.2 |
| 20260505085223 | 70 | 200 | 13.0 | 14.8 | 0.00 | 0.00 | 0.00 | 84 | 1006.3 |
| 20260505084720 | 70 | 215 | 14.8 | 17.4 | 0.00 | 0.00 | 0.00 | 84 | 1006.2 |
| 20260505084220 | 70 | 197 | 10.4 | 13.0 | 0.00 | 0.00 | 0.00 | 84 | 1006.1 |
| 20260505083716 | 70 | 181 | 9.6 | 12.2 | 0.00 | 0.00 | 0.00 | 84 | 1006.0 |
| 20260505083213 | 70 | 202 | 13.0 | 14.8 | 0.00 | 0.00 | 0.00 | 84 | 1006.0 |
| 20260505082708 | 70 | 217 | 8.7 | 11.3 | 0.00 | 0.00 | 0.00 | 84 | 1006.0 |
| 20260505082206 | 70 | 199 | 7.8 | 9.6 | 0.00 | 0.00 | 0.00 | 83 | 1006.2 |
| 20260505081701 | 70 | 200 | 13.9 | 15.6 | 0.00 | 0.00 | 0.00 | 84 | 1006.1 |
| 20260505081159 | 70 | 224 | 7.8 | 9.6 | 0.00 | 0.00 | 0.00 | 84 | 1006.2 |
| 20260505080656 | 70 | 216 | 10.4 | 12.2 | 0.00 | 0.00 | 0.00 | 83 | 1006.3 |
| 20260505080152 | 70 | 197 | 16.5 | 18.2 | 0.00 | 0.00 | 0.00 | 83 | 1006.4 |
| 20260505075648 | 70 | 202 | 10.4 | 13.9 | 0.00 | 0.00 | 0.00 | 83 | 1006.8 |
| 20260505075145 | 70 | 187 | 10.4 | 12.2 | 0.00 | 0.00 | 0.00 | 83 | 1006.6 |
| 20260505074643 | 70 | 212 | 8.7 | 9.6 | 0.00 | 0.00 | 0.00 | 83 | 1006.6 |
| 20260505074139 | 70 | 189 | 10.4 | 12.2 | 0.00 | 0.00 | 0.00 | 83 | 1006.7 |
| 20260505073637 | 70 | 237 | 10.4 | 13.0 | 0.00 | 0.00 | 0.00 | 82 | 1006.6 |
| 20260505073135 | 70 | 229 | 8.7 | 11.3 | 0.00 | 0.00 | 0.00 | 82 | 1006.8 |
| 20260505072630 | 70 | 210 | 9.6 | 11.3 | 0.00 | 0.00 | 0.00 | 82 | 1006.8 |
| 20260505072127 | 71 | 200 | 10.4 | 12.2 | 0.00 | 0.00 | 0.00 | 81 | 1006.7 |
| 20260505071622 | 71 | 217 | 10.4 | 12.2 | 0.00 | 0.00 | 0.00 | 81 | 1007.0 |
| 20260505071120 | 71 | 200 | 10.4 | 11.3 | 0.00 | 0.00 | 0.00 | 81 | 1007.1 |
| 20260505070617 | 71 | 203 | 9.6 | 11.3 | 0.00 | 0.00 | 0.00 | 81 | 1006.8 |
| 20260505070113 | 71 | 202 | 8.7 | 12.2 | 0.00 | 0.00 | 0.00 | 81 | 1007.0 |
| 20260505065610 | 71 | 217 | 8.7 | 9.6 | 0.00 | 0.00 | 0.00 | 81 | 1007.0 |
| 20260505065106 | 71 | 207 | 8.7 | 11.3 | 0.00 | 0.00 | 0.00 | 80 | 1007.1 |
| 20260505064603 | 71 | 196 | 12.2 | 13.9 | 0.00 | 0.00 | 0.00 | 80 | 1006.8 |
| 20260505064102 | 71 | 207 | 13.0 | 17.4 | 0.00 | 0.00 | 0.00 | 80 | 1007.1 |
| 20260505063558 | 71 | 212 | 13.0 | 15.6 | 0.00 | 0.00 | 0.00 | 80 | 1007.0 |
| 20260505063054 | 71 | 215 | 7.8 | 9.6 | 0.00 | 0.00 | 0.00 | 79 | 1007.1 |
| 20260505062551 | 71 | 185 | 9.6 | 11.3 | 0.00 | 0.00 | 0.00 | 79 | 1007.2 |
| 20260505062049 | 71 | 213 | 12.2 | 13.9 | 0.00 | 0.00 | 0.00 | 79 | 1007.3 |
| 20260505061546 | 71 | 191 | 12.2 | 13.0 | 0.00 | 0.00 | 0.00 | 78 | 1007.3 |
| 20260505061044 | 71 | 223 | 12.2 | 15.6 | 0.00 | 0.00 | 0.00 | 78 | 1007.2 |
| 20260505060541 | 71 | 193 | 11.3 | 13.0 | 0.00 | 0.00 | 0.00 | 78 | 1007.3 |
| 20260505060038 | 72 | 210 | 12.2 | 13.9 | 0.00 | 0.00 | 0.00 | 78 | 1007.3 |
| 20260505055533 | 72 | 161 | 11.3 | 14.8 | 0.00 | 0.00 | 0.00 | 77 | 1007.3 |
| 20260505055030 | 72 | 138 | 10.4 | 12.2 | 0.00 | 0.00 | 0.00 | 77 | 1007.4 |
| 20260505054527 | 72 | 188 | 13.0 | 17.4 | 0.00 | 0.00 | 0.00 | 77 | 1007.5 |
| 20260505054025 | 72 | 205 | 13.9 | 14.8 | 0.00 | 0.00 | 0.00 | 77 | 1007.5 |
| 20260505053522 | 72 | 210 | 9.6 | 12.2 | 0.00 | 0.00 | 0.00 | 76 | 1007.3 |
| 20260505053019 | 72 | 193 | 13.0 | 14.8 | 0.00 | 0.00 | 0.00 | 76 | 1007.5 |
| 20260505052516 | 72 | 174 | 7.8 | 9.6 | 0.00 | 0.00 | 0.00 | 76 | 1007.4 |
| 20260505052013 | 72 | 198 | 8.7 | 11.3 | 0.00 | 0.00 | 0.00 | 75 | 1007.6 |
| 20260505051504 | 72 | 190 | 12.2 | 14.8 | 0.00 | 0.00 | 0.00 | 75 | 1007.7 |
| 20260505051003 | 72 | 202 | 9.6 | 13.9 | 0.00 | 0.00 | 0.00 | 75 | 1007.8 |
| 20260505050500 | 72 | 222 | 11.3 | 13.0 | 0.00 | 0.00 | 0.00 | 75 | 1007.6 |
| 20260505041428 | 71 | 174 | 7.8 | 8.7 | 0.00 | 0.00 | 0.00 | 74 | 1008.3 |
| 20260505040925 | 71 | 161 | 6.1 | 7.8 | 0.00 | 0.00 | 0.00 | 74 | 1008.2 |
| 20260505040423 | 71 | 199 | 7.0 | 7.8 | 0.00 | 0.00 | 0.00 | 74 | 1008.1 |
| 20260505035919 | 71 | 195 | 7.8 | 7.8 | 0.00 | 0.00 | 0.00 | 74 | 1008.2 |
| 20260505035415 | 71 | 174 | 7.0 | 7.8 | 0.00 | 0.00 | 0.00 | 74 | 1007.9 |
| 20260505034913 | 71 | 192 | 6.1 | 7.0 | 0.00 | 0.00 | 0.00 | 73 | 1008.0 |
| 20260505034409 | 72 | 163 | 4.3 | 6.1 | 0.00 | 0.00 | 0.00 | 73 | 1007.9 |
| 20260505033906 | 72 | 185 | 6.1 | 6.1 | 0.00 | 0.00 | 0.00 | 72 | 1008.3 |
| 20260505033403 | 72 | 176 | 6.1 | 7.8 | 0.00 | 0.00 | 0.00 | 72 | 1008.4 |
| 20260505032901 | 72 | 180 | 7.8 | 9.6 | 0.00 | 0.00 | 0.00 | 71 | 1008.1 |
| 20260505032357 | 72 | 193 | 7.8 | 8.7 | 0.00 | 0.00 | 0.00 | 71 | 1008.2 |
| 20260505031854 | 72 | 172 | 6.1 | 7.8 | 0.00 | 0.00 | 0.00 | 71 | 1008.3 |
| 20260505031351 | 72 | 199 | 12.2 | 13.9 | 0.00 | 0.00 | 0.00 | 70 | 1008.2 |
| 20260505030849 | 73 | 193 | 6.1 | 7.8 | 0.00 | 0.00 | 0.00 | 70 | 1008.3 |
| 20260505030344 | 73 | 192 | 7.0 | 7.8 | 0.00 | 0.00 | 0.00 | 69 | 1008.1 |
| 20260505025840 | 73 | 186 | 8.7 | 11.3 | 0.00 | 0.00 | 0.00 | 69 | 1008.2 |
| 20260505025337 | 73 | 190 | 6.1 | 7.8 | 0.00 | 0.00 | 0.00 | 69 | 1008.0 |
| 20260505024836 | 73 | 189 | 7.0 | 7.8 | 0.00 | 0.00 | 0.00 | 69 | 1008.2 |
| 20260505024333 | 73 | 139 | 7.8 | 9.6 | 0.00 | 0.00 | 0.00 | 69 | 1008.2 |
| 20260505023830 | 73 | 172 | 9.6 | 11.3 | 0.00 | 0.00 | 0.00 | 69 | 1007.9 |
| 20260505023327 | 73 | 187 | 9.6 | 11.3 | 0.00 | 0.00 | 0.00 | 68 | 1008.2 |
| 20260505022825 | 73 | 165 | 10.4 | 12.2 | 0.00 | 0.00 | 0.00 | 68 | 1008.2 |
| 20260505022321 | 73 | 183 | 8.7 | 11.3 | 0.00 | 0.00 | 0.00 | 68 | 1007.9 |
| 20260505021819 | 73 | 197 | 8.7 | 9.6 | 0.00 | 0.00 | 0.00 | 68 | 1007.8 |
| 20260505021315 | 73 | 211 | 7.0 | 8.7 | 0.00 | 0.00 | 0.00 | 68 | 1008.1 |
| 20260505020811 | 73 | 179 | 9.6 | 11.3 | 0.00 | 0.00 | 0.00 | 67 | 1008.0 |
| 20260505020307 | 73 | 166 | 9.6 | 11.3 | 0.00 | 0.00 | 0.00 | 67 | 1007.7 |
| 20260505015804 | 73 | 207 | 8.7 | 11.3 | 0.00 | 0.00 | 0.00 | 67 | 1008.0 |
| 20260505015301 | 73 | 183 | 8.7 | 9.6 | 0.00 | 0.00 | 0.00 | 67 | 1007.8 |
| 20260505014758 | 74 | 203 | 7.8 | 9.6 | 0.00 | 0.00 | 0.00 | 67 | 1008.0 |
| 20260505014255 | 74 | 186 | 9.6 | 11.3 | 0.00 | 0.00 | 0.00 | 67 | 1007.9 |
| 20260505013751 | 74 | 196 | 7.0 | 8.7 | 0.00 | 0.00 | 0.00 | 66 | 1007.9 |
| 20260505013248 | 74 | 199 | 8.7 | 9.6 | 0.00 | 0.00 | 0.00 | 67 | 1008.1 |
| 20260505012747 | 74 | 203 | 7.8 | 7.8 | 0.00 | 0.00 | 0.00 | 66 | 1007.8 |
| 20260505012244 | 74 | 193 | 8.7 | 11.3 | 0.00 | 0.00 | 0.00 | 65 | 1007.8 |
| 20260505011739 | 74 | 182 | 7.8 | 8.7 | 0.00 | 0.00 | 0.00 | 65 | 1007.9 |
| 20260505011236 | 75 | 176 | 6.1 | 7.8 | 0.00 | 0.00 | 0.00 | 65 | 1008.0 |
| 20260505010732 | 75 | 192 | 6.1 | 7.8 | 0.00 | 0.00 | 0.00 | 64 | 1008.2 |
| 20260505010228 | 75 | 202 | 7.0 | 8.7 | 0.00 | 0.00 | 0.00 | 63 | 1008.0 |
| 20260505005725 | 75 | 190 | 6.1 | 7.0 | 0.00 | 0.00 | 0.00 | 63 | 1007.9 |
| 20260505005222 | 76 | 175 | 10.4 | 12.2 | 0.00 | 0.00 | 0.00 | 62 | 1007.8 |
| 20260505004719 | 76 | 202 | 7.0 | 7.8 | 0.00 | 0.00 | 0.00 | 62 | 1008.1 |
| 20260505004216 | 76 | 202 | 9.6 | 11.3 | 0.00 | 0.00 | 0.00 | 61 | 1008.0 |
| 20260505003713 | 76 | 189 | 10.4 | 13.9 | 0.00 | 0.00 | 0.00 | 61 | 1007.9 |
| 20260505003211 | 76 | 206 | 10.4 | 12.2 | 0.00 | 0.00 | 0.00 | 60 | 1008.0 |
| 20260505002706 | 77 | 196 | 10.4 | 13.0 | 0.00 | 0.00 | 0.00 | 60 | 1008.0 |
| 20260505002204 | 77 | 207 | 7.8 | 12.2 | 0.00 | 0.00 | 0.00 | 60 | 1008.0 |
| 20260505001701 | 77 | 198 | 7.0 | 8.7 | 0.00 | 0.00 | 0.00 | 59 | 1007.9 |
| 20260505001159 | 77 | 185 | 9.6 | 11.3 | 0.00 | 0.00 | 0.00 | 59 | 1007.8 |
| 20260505000656 | 77 | 203 | 8.7 | 13.9 | 0.00 | 0.00 | 0.00 | 58 | 1007.9 |
| 20260505000154 | 77 | 200 | 9.6 | 13.9 | 0.00 | 0.00 | 0.00 | 58 | 1008.1 |
| 20260504235650 | 77 | 190 | 7.8 | 8.7 | 0.00 | 0.00 | 0.00 | 58 | 1008.2 |
| 20260504235147 | 77 | 185 | 6.1 | 7.8 | 0.00 | 0.00 | 0.00 | 58 | 1008.0 |
| 20260504234645 | 78 | 198 | 11.3 | 13.0 | 0.00 | 0.00 | 0.00 | 56 | 1008.3 |
| 20260504234142 | 78 | 181 | 11.3 | 13.9 | 0.00 | 0.00 | 0.00 | 56 | 1008.3 |
| 20260504233637 | 78 | 186 | 7.8 | 9.6 | 0.00 | 0.00 | 0.00 | 56 | 1008.2 |
| 20260504233133 | 78 | 207 | 10.4 | 12.2 | 0.00 | 0.00 | 0.00 | 55 | 1008.2 |
| 20260504232631 | 78 | 189 | 12.2 | 14.8 | 0.00 | 0.00 | 0.00 | 55 | 1008.4 |
| 20260504232127 | 78 | 174 | 8.7 | 8.7 | 0.00 | 0.00 | 0.00 | 55 | 1008.3 |
| 20260504231625 | 79 | 183 | 11.3 | 13.9 | 0.00 | 0.00 | 0.00 | 53 | 1008.3 |
| 20260504231121 | 79 | 190 | 7.8 | 8.7 | 0.00 | 0.00 | 0.00 | 54 | 1008.4 |
| 20260504230617 | 80 | 205 | 14.8 | 20.0 | 0.00 | 0.00 | 0.00 | 52 | 1008.9 |
| 20260504230116 | 79 | 159 | 12.2 | 15.6 | 0.00 | 0.00 | 0.00 | 52 | 1008.8 |
| 20260504225614 | 79 | 198 | 12.2 | 14.8 | 0.00 | 0.00 | 0.00 | 52 | 1008.6 |
| 20260504225110 | 80 | 174 | 8.7 | 12.2 | 0.00 | 0.00 | 0.00 | 52 | 1008.5 |
| 20260504224607 | 80 | 160 | 9.6 | 9.6 | 0.00 | 0.00 | 0.00 | 52 | 1008.6 |
| 20260504224104 | 80 | 190 | 11.3 | 13.0 | 0.00 | 0.00 | 0.00 | 51 | 1008.8 |
| 20260504223601 | 80 | 174 | 9.6 | 13.9 | 0.00 | 0.00 | 0.00 | 52 | 1008.7 |
| 20260504223056 | 80 | 180 | 13.0 | 14.8 | 0.00 | 0.00 | 0.00 | 51 | 1008.7 |
| 20260504222553 | 80 | 212 | 10.4 | 12.2 | 0.00 | 0.00 | 0.00 | 51 | 1008.8 |
| 20260504222050 | 80 | 165 | 11.3 | 13.9 | 0.00 | 0.00 | 0.00 | 50 | 1008.9 |
| 20260504221547 | 80 | 218 | 12.2 | 15.6 | 0.00 | 0.00 | 0.00 | 50 | 1009.0 |
| 20260504221044 | 80 | 189 | 14.8 | 17.4 | 0.00 | 0.00 | 0.00 | 48 | 1009.0 |
| 20260504220541 | 80 | 207 | 14.8 | 18.2 | 0.00 | 0.00 | 0.00 | 49 | 1009.1 |
| 20260504220038 | 80 | 218 | 10.4 | 13.0 | 0.00 | 0.00 | 0.00 | 49 | 1009.1 |
| 20260504215534 | 80 | 203 | 8.7 | 11.3 | 0.00 | 0.00 | 0.00 | 49 | 1009.2 |
| 20260504215032 | 80 | 192 | 13.0 | 15.6 | 0.00 | 0.00 | 0.00 | 48 | 1009.0 |
| 20260504214528 | 80 | 157 | 10.4 | 13.9 | 0.00 | 0.00 | 0.00 | 50 | 1009.3 |
| 20260504214024 | 79 | 184 | 14.8 | 17.4 | 0.00 | 0.00 | 0.00 | 48 | 1009.3 |
| 20260504213521 | 80 | 197 | 13.0 | 18.2 | 0.00 | 0.00 | 0.00 | 48 | 1009.5 |
| 20260504213018 | 80 | 196 | 13.0 | 15.6 | 0.00 | 0.00 | 0.00 | 48 | 1009.5 |
| 20260504212514 | 80 | 195 | 9.6 | 13.0 | 0.00 | 0.00 | 0.00 | 49 | 1009.9 |
| 20260504212011 | 80 | 191 | 12.2 | 13.0 | 0.00 | 0.00 | 0.00 | 47 | 1009.7 |
| 20260504211508 | 80 | 162 | 13.9 | 14.8 | 0.00 | 0.00 | 0.00 | 46 | 1009.9 |
| 20260504211006 | 80 | 197 | 14.8 | 19.1 | 0.00 | 0.00 | 0.00 | 46 | 1009.8 |
| 20260504210502 | 81 | 186 | 14.8 | 17.4 | 0.00 | 0.00 | 0.00 | 45 | 1009.9 |
| 20260504205959 | 80 | 205 | 12.2 | 15.6 | 0.00 | 0.00 | 0.00 | 45 | 1010.1 |
| 20260504205457 | 80 | 201 | 14.8 | 19.1 | 0.00 | 0.00 | 0.00 | 46 | 1010.0 |
| 20260504204955 | 80 | 174 | 15.6 | 17.4 | 0.00 | 0.00 | 0.00 | 45 | 1010.1 |
| 20260504204453 | 80 | 185 | 14.8 | 18.2 | 0.00 | 0.00 | 0.00 | 45 | 1010.4 |
| 20260504203952 | 80 | 217 | 13.0 | 15.6 | 0.00 | 0.00 | 0.00 | 44 | 1010.5 |
| 20260504203450 | 80 | 196 | 14.8 | 17.4 | 0.00 | 0.00 | 0.00 | 45 | 1010.6 |
| 20260504202945 | 80 | 193 | 13.0 | 14.8 | 0.00 | 0.00 | 0.00 | 45 | 1010.6 |
| 20260504202441 | 80 | 203 | 13.0 | 15.6 | 0.00 | 0.00 | 0.00 | 45 | 1010.7 |
| 20260504201938 | 80 | 168 | 13.9 | 15.6 | 0.00 | 0.00 | 0.00 | 45 | 1011.1 |
| 20260504201435 | 79 | 188 | 11.3 | 13.0 | 0.00 | 0.00 | 0.00 | 46 | 1011.0 |
| 20260504200933 | 79 | 202 | 10.4 | 12.2 | 0.00 | 0.00 | 0.00 | 46 | 1011.1 |
| 20260504200430 | 79 | 214 | 9.6 | 11.3 | 0.00 | 0.00 | 0.00 | 47 | 1011.4 |
| 20260504195926 | 79 | 205 | 9.6 | 13.0 | 0.00 | 0.00 | 0.00 | 47 | 1011.5 |
| 20260504195422 | 79 | 200 | 9.6 | 11.3 | 0.00 | 0.00 | 0.00 | 46 | 1011.5 |
| 20260504194919 | 78 | 135 | 8.7 | 11.3 | 0.00 | 0.00 | 0.00 | 47 | 1011.7 |
| 20260504194415 | 79 | 193 | 16.5 | 18.2 | 0.00 | 0.00 | 0.00 | 45 | 1011.4 |
| 20260504193911 | 78 | 194 | 12.2 | 17.4 | 0.00 | 0.00 | 0.00 | 46 | 1011.5 |
| 20260504193408 | 78 | 207 | 13.9 | 15.6 | 0.00 | 0.00 | 0.00 | 46 | 1011.7 |
| 20260504192907 | 79 | 186 | 9.6 | 11.3 | 0.00 | 0.00 | 0.00 | 46 | 1012.1 |
| 20260504192404 | 79 | 203 | 16.5 | 19.1 | 0.00 | 0.00 | 0.00 | 44 | 1011.9 |
| 20260504191903 | 79 | 159 | 8.7 | 11.3 | 0.00 | 0.00 | 0.00 | 45 | 1012.3 |
| 20260504191400 | 78 | 187 | 7.8 | 9.6 | 0.00 | 0.00 | 0.00 | 48 | 1012.2 |
| 20260504190855 | 79 | 196 | 11.3 | 13.9 | 0.00 | 0.00 | 0.00 | 45 | 1012.3 |
| 20260504190351 | 78 | 159 | 7.8 | 9.6 | 0.00 | 0.00 | 0.00 | 47 | 1012.1 |
| 20260504185848 | 78 | 194 | 7.0 | 7.8 | 0.00 | 0.00 | 0.00 | 48 | 1012.2 |
| 20260504185345 | 77 | 197 | 13.9 | 15.6 | 0.00 | 0.00 | 0.00 | 47 | 1012.3 |
| 20260504184841 | 77 | 190 | 13.0 | 14.8 | 0.00 | 0.00 | 0.00 | 48 | 1012.5 |
| 20260504184337 | 77 | 194 | 13.9 | 18.2 | 0.00 | 0.00 | 0.00 | 47 | 1012.4 |
| 20260504183833 | 78 | 183 | 14.8 | 18.2 | 0.00 | 0.00 | 0.00 | 45 | 1012.6 |
| 20260504183331 | 77 | 204 | 9.6 | 12.2 | 0.00 | 0.00 | 0.00 | 46 | 1012.7 |
| 20260504182828 | 77 | 195 | 13.0 | 17.4 | 0.00 | 0.00 | 0.00 | 45 | 1012.9 |
| 20260504182326 | 77 | 176 | 7.8 | 8.7 | 0.00 | 0.00 | 0.00 | 49 | 1012.9 |
| 20260504181822 | 77 | 229 | 11.3 | 14.8 | 0.00 | 0.00 | 0.00 | 47 | 1013.1 |
| 20260504181320 | 77 | 170 | 9.6 | 12.2 | 0.00 | 0.00 | 0.00 | 48 | 1013.2 |
| 20260504180819 | 77 | 190 | 12.2 | 15.6 | 0.00 | 0.00 | 0.00 | 46 | 1013.1 |
| 20260504180317 | 76 | 207 | 7.8 | 9.6 | 0.00 | 0.00 | 0.00 | 49 | 1013.0 |
| 20260504175815 | 76 | 190 | 12.2 | 13.9 | 0.00 | 0.00 | 0.00 | 47 | 1013.3 |
| 20260504175311 | 76 | 204 | 7.8 | 13.0 | 0.00 | 0.00 | 0.00 | 50 | 1013.4 |
| 20260504174809 | 76 | 193 | 15.6 | 19.1 | 0.00 | 0.00 | 0.00 | 46 | 1013.7 |
| 20260504174306 | 76 | 208 | 12.2 | 14.8 | 0.00 | 0.00 | 0.00 | 46 | 1013.5 |
| 20260504173803 | 76 | 167 | 10.4 | 13.9 | 0.00 | 0.00 | 0.00 | 47 | 1013.7 |
| 20260504173300 | 75 | 175 | 10.4 | 13.0 | 0.00 | 0.00 | 0.00 | 49 | 1013.5 |
| 20260504172756 | 74 | 202 | 9.6 | 12.2 | 0.00 | 0.00 | 0.00 | 49 | 1014.0 |
| 20260504172253 | 75 | 215 | 10.4 | 12.2 | 0.00 | 0.00 | 0.00 | 50 | 1013.9 |
| 20260504171749 | 74 | 211 | 13.9 | 15.6 | 0.00 | 0.00 | 0.00 | 48 | 1014.1 |
| 20260504171247 | 74 | 174 | 13.9 | 15.6 | 0.00 | 0.00 | 0.00 | 49 | 1014.3 |
| 20260504170743 | 74 | 202 | 11.3 | 13.0 | 0.00 | 0.00 | 0.00 | 50 | 1014.3 |
| 20260504170241 | 75 | 220 | 13.9 | 18.2 | 0.00 | 0.00 | 0.00 | 48 | 1014.4 |
| 20260504160159 | 72 | 201 | 12.2 | 13.9 | 0.00 | 0.00 | 0.00 | 52 | 1014.6 |